Regional Weather Roundup
Issued by NWS Sioux Falls, SD

Home | Current Version | Previous Version | Graphics & Text | Print | Product List | Glossary On
Versions: 1 2 3 4 5 6 7 8 9 10 11 12 13 14 15 16 17 18 19 20 21 22 23 24 25 26 27 28 29 30 31 32 33 34 35 36 37 38 39 40 41 42 43 44 45 46 47 48 49 50
000
ASUS43 KFSD 220710
RWRFSD

WEATHER ROUNDUP FOR SE SOUTH DAKOTA/SW MINNESOTA/NW IOWA
NATIONAL WEATHER SERVICE SIOUX FALLS SD
200 AM CDT FRI MAY 22 2015

NOTE: "FAIR" INDICATES FEW OR NO CLOUDS BELOW 12,000 FEET WITH NO
SIGNIFICANT WEATHER AND OR OBSTRUCTIONS TO VISIBILITY.


SDZ038>040-050-052>070-220800-
SOUTHEAST SOUTH DAKOTA

CITY           SKY/WX    TMP DP  RH WIND       PRES   REMARKS
BROOKINGS      CLEAR     45  39  81 SW5       30.19R
CHAMBERLAIN    CLEAR     50  37  61 CALM      30.17R
HURON          CLEAR     48  42  80 CALM      30.15S
MADISON        FAIR      50  37  62 NW6       30.17S
MITCHELL       CLEAR     53  39  59 W7        30.17R
SIOUX FALLS    CLEAR     52  40  63 CALM      30.16R
WINNER         FAIR      54  33  45 S10       30.18S
YANKTON        CLEAR     52  37  58 CALM      30.17R
$$

MNZ071-072-080-081-089-090-097-098-220800-
SOUTHWEST MINNESOTA

CITY           SKY/WX    TMP DP  RH WIND       PRES   REMARKS
FAIRMONT       CLEAR     50  30  46 NW6       30.13S
JACKSON        CLEAR     48  32  53 W3        30.15S
LUVERNE        CLEAR     50  41  71 CALM      30.18R
MARSHALL       CLEAR     48  32  53 W6        30.15S
MONTEVIDEO     CLEAR     52  36  54 N3        30.16R
REDWOOD FALLS  CLEAR     52  36  54 NW8       30.14R
TRACY          CLEAR     55  33  43 W5        30.16S
WORTHINGTON    CLEAR     48  28  46 W5        30.17R
$$

IAZ001>003-012>014-020>022-031-032-NEZ013-014-SDZ071-220800-
NORTHWEST IOWA

CITY           SKY/WX    TMP DP  RH WIND       PRES   REMARKS
CHEROKEE       CLEAR     50  42  75 S3        30.16S
DENISON        PTCLDY    54  41  62 CALM      30.17R
ESTHERVILLE    CLEAR     46  33  60 W7        30.14R
LE MARS        CLEAR     46  43  87 S3        30.18S
ORANGE CITY    CLEAR     52  41  66 W6        30.16S
SHELDON        CLEAR     46  39  76 NE6       30.16R
SIOUX CITY     CLEAR     53  38  56 NW3       30.18R
SPENCER        CLEAR     44  39  82 SW9       30.16R
STORM LAKE     CLEAR     52  41  66 W10       30.17R
$$

ABBREVIATIONS USED IN REMARKS
   TC - TEMPERATURE IN CELSIUS
  WCI - WIND CHILL INDEX
   HX - HEAT INDEX
  VSB - VISIBILITY




USA.gov is the U.S. government's official web portal to all federal, state and local government web resources and services.